Washington, PA

5:57 PM EST on December 07, 2019 (GMT -0500)
Washington County

Weather History for KAFJ - October, 2019

Change the Weather History Date:

Wednesday, October 16, 2019

  Actual Average Record
Temperature  
Mean Temperature 51 °F -  
Max Temperature 57 °F 59 °F 84 °F (2007)
Min Temperature 45 °F 38 °F 30 °F (2006)
Degree Days  
Heating Degree Days 14    
Growing Degree Days 1 (Base 50)    
Moisture  
Dew Point 45 °F    
Average Humidity 84    
Maximum Humidity 100    
Minimum Humidity 62    
Precipitation  
Precipitation 0.89 in - - ()
Sea Level Pressure  
Sea Level Pressure 29.73 in    
Wind  
Wind Speed 7 mph ()    
Max Wind Speed 22 mph    
Max Gust Speed 29 mph    
Visibility 9.8 miles    
Events Rain , Thunderstorm    
Averages and records for this station are not official NWS values.
T = Trace of Precipitation, MM = Missing Value Source: Averaged Metar Reports

Daily Weather History Graph

Daily Weather History Graph

Search for Another Location

Airport or City:

Astronomy

Oct. 16, 2019 Rise Set
Actual Time 7:32 AM EDT 6:40 PM EDT
Civil Twilight 7:05 AM EDT 7:07 PM EDT
Nautical Twilight 6:33 AM EDT 7:39 PM EDT
Astronomical Twilight 6:02 AM EDT 8:10 PM EDT
Moon 8:32 PM EDT (10/16) 10:01 AM EDT (10/16)
Length of Visible Light 12h 02m
Length of Day
11h 07m
Waning Gibbous, 93% of the Moon is Illuminated
Oct 16
Waning Gibbous
Oct 21
Last Quarter
Oct 27
New
Nov 4
First Quarter
Nov 12
Full

Hourly Weather History & Observations

Time (EDT) Temp. Windchill Dew Point Humidity Pressure Visibility Wind Dir Wind Speed Gust Speed Precip Events Conditions
12:56 AM 53.1 °F - 41.0 °F 64% 29.86 in 10.0 mi South 4.6 mph - N/A   Mostly Cloudy
1:56 AM 53.1 °F - 42.1 °F 66% 29.82 in 10.0 mi SSE 5.8 mph - N/A   Clear
2:56 AM 53.1 °F - 42.1 °F 66% 29.81 in 10.0 mi South 5.8 mph - N/A   Clear
3:56 AM 55.0 °F - 43.0 °F 64% 29.76 in 10.0 mi South 3.5 mph - N/A   Clear
4:56 AM 55.9 °F - 44.1 °F 64% 29.74 in 10.0 mi SSW 6.9 mph - N/A   Mostly Cloudy
5:56 AM 57.9 °F - 45.0 °F 62% 29.71 in 10.0 mi South 5.8 mph - N/A   Mostly Cloudy
6:38 AM 57.2 °F - 46.4 °F 67% 29.75 in 8.0 mi WSW 10.4 mph - 0.01 in Rain , Thunderstorm Thunderstorms and Rain
6:56 AM 55.0 °F - 51.1 °F 86% 29.74 in 10.0 mi SSW 8.1 mph 27.6 mph 0.07 in Rain , Thunderstorm Thunderstorms and Rain
7:07 AM 55.4 °F - 51.8 °F 88% 29.73 in 10.0 mi SSW 6.9 mph - 0.01 in Rain Light Rain
7:56 AM 53.1 °F - 52.0 °F 96% 29.68 in 9.0 mi South 4.6 mph - 0.11 in Rain Rain
8:48 AM 53.6 °F - 53.6 °F 100% 29.68 in 10.0 mi South 8.1 mph - 0.09 in Rain Rain
8:56 AM 55.0 °F - 54.0 °F 96% 29.68 in 9.0 mi South 8.1 mph - 0.11 in Rain Rain
9:56 AM 55.0 °F - 55.0 °F 100% 29.70 in 9.0 mi WNW 11.5 mph - 0.23 in Rain Rain
10:23 AM 50.0 °F - 48.2 °F 94% 29.72 in 10.0 mi WNW 9.2 mph 17.3 mph 0.20 in Rain Rain
10:30 AM 50.0 °F - 48.2 °F 94% 29.72 in 10.0 mi WNW 8.1 mph - 0.22 in Rain Rain
10:56 AM 50.0 °F - 48.9 °F 96% 29.73 in 10.0 mi WNW 6.9 mph - 0.27 in Rain Rain
11:40 AM 48.2 °F - 46.4 °F 93% 29.72 in 10.0 mi North 3.5 mph - 0.06 in Rain Rain
11:56 AM 48.0 °F - 46.0 °F 93% 29.72 in 10.0 mi NNE 3.5 mph - 0.08 in Rain Light Rain
12:38 PM 48.2 °F - 46.4 °F 93% 29.72 in 10.0 mi West 6.9 mph - 0.01 in Rain Light Rain
12:47 PM 48.2 °F - 46.4 °F 93% 29.73 in 10.0 mi WSW 5.8 mph - 0.01 in Rain Light Rain
12:56 PM 48.0 °F - 46.0 °F 93% 29.73 in 10.0 mi WSW 6.9 mph - 0.01 in   Overcast
1:56 PM 50.0 °F - 46.0 °F 86% 29.71 in 10.0 mi WSW 9.2 mph - 0.01 in   Overcast
2:41 PM 48.2 °F - 44.6 °F 87% 29.71 in 10.0 mi West 15.0 mph - N/A   Overcast
2:56 PM 48.9 °F - 44.1 °F 83% 29.72 in 10.0 mi West 12.7 mph 25.3 mph N/A   Overcast
3:38 PM 48.2 °F - 42.8 °F 82% 29.72 in 10.0 mi West 15.0 mph - N/A   Overcast
3:56 PM 48.9 °F - 42.1 °F 77% 29.72 in 10.0 mi West 19.6 mph 23.0 mph N/A   Overcast
4:56 PM 46.9 °F - 39.0 °F 74% 29.73 in 10.0 mi WSW 13.8 mph - N/A   Overcast
5:10 PM 46.4 °F 40.4 °F 39.2 °F 76% 29.72 in 10.0 mi WSW 13.8 mph 19.6 mph N/A   Overcast
5:18 PM 46.4 °F 40.7 °F 39.2 °F 76% 29.73 in 10.0 mi WSW 12.7 mph 23.0 mph N/A   Overcast
5:56 PM 46.9 °F - 39.0 °F 74% 29.73 in 10.0 mi WSW 11.5 mph 16.1 mph N/A   Overcast
6:56 PM 46.0 °F 41.9 °F 39.9 °F 79% 29.74 in 10.0 mi WSW 8.1 mph 20.7 mph N/A   Overcast
7:56 PM 45.0 °F 38.2 °F 41.0 °F 86% 29.75 in 10.0 mi SW 15.0 mph 20.7 mph 0.00 in Rain Light Rain
8:56 PM 45.0 °F 39.7 °F 42.1 °F 90% 29.75 in 10.0 mi SW 10.4 mph 21.9 mph 0.00 in Rain Light Rain
9:56 PM 45.0 °F 38.9 °F 43.0 °F 93% 29.75 in 9.0 mi WSW 12.7 mph 20.7 mph 0.00 in   Overcast
10:56 PM 45.0 °F 38.9 °F 43.0 °F 93% 29.75 in 8.0 mi WSW 12.7 mph 24.2 mph 0.00 in Rain Light Rain
11:56 PM 46.0 °F 38.0 °F 43.0 °F 89% 29.75 in 10.0 mi West 21.9 mph 28.8 mph 0.00 in   Overcast